| time (UTC) | temp F | wind direction | speed knots | gust knots | rain 1hr in | rain 24hr in | rain mn in | humidity % | barometer mb |
| 20260505041410 | 57 | 238 | 0.0 | 0.0 | 0.00 | 0.00 | 0.00 | 66 | 1016.3 |
| 20260505040907 | 57 | 238 | 0.0 | 0.0 | 0.00 | 0.00 | 0.00 | 65 | 1015.9 |
| 20260505040405 | 57 | 236 | 0.0 | 0.0 | 0.00 | 0.00 | 0.00 | 65 | 1016.3 |
| 20260505035902 | 57 | 236 | 0.0 | 0.0 | 0.00 | 0.00 | 0.00 | 65 | 1016.3 |
| 20260505035357 | 57 | 236 | 0.0 | 0.0 | 0.00 | 0.00 | 0.00 | 66 | 1016.3 |
| 20260505034855 | 57 | 236 | 0.0 | 0.0 | 0.00 | 0.00 | 0.00 | 65 | 1016.3 |
| 20260505034351 | 57 | 236 | 0.0 | 0.0 | 0.00 | 0.00 | 0.00 | 65 | 1016.3 |
| 20260505033849 | 57 | 236 | 0.0 | 0.0 | 0.00 | 0.00 | 0.00 | 64 | 1016.3 |
| 20260505033345 | 57 | 265 | 0.0 | 0.0 | 0.00 | 0.00 | 0.00 | 64 | 1016.3 |
| 20260505032843 | 57 | 265 | 0.0 | 0.0 | 0.00 | 0.00 | 0.00 | 64 | 1016.3 |
| 20260505032339 | 58 | 265 | 0.0 | 0.0 | 0.00 | 0.00 | 0.00 | 64 | 1016.3 |
| 20260505031836 | 58 | 265 | 0.0 | 0.0 | 0.00 | 0.00 | 0.00 | 63 | 1016.3 |
| 20260505031333 | 58 | 265 | 0.0 | 0.0 | 0.00 | 0.00 | 0.00 | 63 | 1016.7 |
| 20260505030830 | 58 | 265 | 0.0 | 0.0 | 0.00 | 0.00 | 0.00 | 63 | 1016.7 |
| 20260505030326 | 58 | 213 | 0.0 | 0.0 | 0.00 | 0.00 | 0.00 | 63 | 1016.7 |
| 20260505025822 | 58 | 213 | 0.0 | 0.0 | 0.00 | 0.00 | 0.00 | 63 | 1016.7 |
| 20260505025320 | 58 | 213 | 0.0 | 0.0 | 0.00 | 0.00 | 0.00 | 62 | 1016.7 |
| 20260505024818 | 58 | 212 | 0.0 | 0.0 | 0.00 | 0.00 | 0.00 | 62 | 1016.3 |
| 20260505024316 | 58 | 212 | 0.0 | 0.0 | 0.00 | 0.00 | 0.00 | 62 | 1016.3 |
| 20260505023813 | 58 | 212 | 0.0 | 0.0 | 0.00 | 0.00 | 0.00 | 62 | 1016.3 |
| 20260505023309 | 59 | 212 | 0.0 | 0.0 | 0.00 | 0.00 | 0.00 | 62 | 1016.3 |
| 20260505022806 | 59 | 212 | 0.0 | 0.0 | 0.00 | 0.00 | 0.00 | 62 | 1016.3 |
| 20260505022304 | 59 | 212 | 0.0 | 0.0 | 0.00 | 0.00 | 0.00 | 62 | 1016.3 |
| 20260505021800 | 59 | 202 | 0.0 | 0.0 | 0.00 | 0.00 | 0.00 | 61 | 1016.3 |
| 20260505021257 | 59 | 202 | 0.0 | 0.0 | 0.00 | 0.00 | 0.00 | 61 | 1016.3 |
| 20260505020753 | 59 | 202 | 0.0 | 0.0 | 0.00 | 0.00 | 0.00 | 60 | 1016.3 |
| 20260505020254 | 59 | 202 | 0.0 | 0.0 | 0.00 | 0.00 | 0.00 | 60 | 1016.3 |
| 20260505015751 | 60 | 202 | 0.0 | 0.0 | 0.00 | 0.00 | 0.00 | 60 | 1016.3 |
| 20260505015248 | 60 | 202 | 0.0 | 0.0 | 0.00 | 0.00 | 0.00 | 60 | 1016.3 |
| 20260505014745 | 60 | 202 | 0.0 | 0.0 | 0.00 | 0.00 | 0.00 | 59 | 1015.9 |
| 20260505014243 | 60 | 202 | 0.0 | 0.0 | 0.00 | 0.00 | 0.00 | 58 | 1015.9 |
| 20260505013739 | 60 | 202 | 0.0 | 0.0 | 0.00 | 0.00 | 0.00 | 58 | 1015.9 |
| 20260505013237 | 61 | 273 | 0.0 | 0.0 | 0.00 | 0.00 | 0.00 | 57 | 1015.6 |
| 20260505012734 | 61 | 273 | 0.0 | 0.0 | 0.00 | 0.00 | 0.00 | 57 | 1015.6 |
| 20260505012231 | 61 | 274 | 0.0 | 0.0 | 0.00 | 0.00 | 0.00 | 56 | 1015.6 |
| 20260505011727 | 62 | 274 | 0.0 | 0.0 | 0.00 | 0.00 | 0.00 | 56 | 1015.6 |
| 20260505011225 | 62 | 171 | 0.0 | 0.0 | 0.00 | 0.00 | 0.00 | 56 | 1015.6 |
| 20260505010720 | 62 | 165 | 0.0 | 0.0 | 0.00 | 0.00 | 0.00 | 56 | 1015.6 |
| 20260505010217 | 62 | 165 | 0.0 | 0.0 | 0.00 | 0.00 | 0.00 | 56 | 1015.6 |
| 20260505005713 | 62 | 165 | 0.0 | 0.0 | 0.00 | 0.00 | 0.00 | 55 | 1015.6 |
| 20260505005210 | 63 | 159 | 0.0 | 0.0 | 0.00 | 0.00 | 0.00 | 55 | 1015.6 |
| 20260505004707 | 63 | 159 | 0.0 | 0.0 | 0.00 | 0.00 | 0.00 | 55 | 1015.6 |
| 20260505004204 | 64 | 159 | 0.0 | 0.0 | 0.00 | 0.00 | 0.00 | 54 | 1015.6 |
| 20260505003701 | 64 | 160 | 0.0 | 0.0 | 0.00 | 0.00 | 0.00 | 53 | 1015.6 |
| 20260505003159 | 64 | 160 | 0.0 | 0.0 | 0.00 | 0.00 | 0.00 | 53 | 1015.2 |
| 20260505002655 | 65 | 237 | 0.0 | 0.0 | 0.00 | 0.00 | 0.00 | 52 | 1015.2 |
| 20260505002153 | 65 | 237 | 0.0 | 0.0 | 0.00 | 0.00 | 0.00 | 52 | 1015.2 |
| 20260505001649 | 66 | 237 | 0.0 | 0.0 | 0.00 | 0.00 | 0.00 | 51 | 1015.2 |
| 20260505001147 | 66 | 151 | 0.0 | 0.0 | 0.00 | 0.00 | 0.00 | 51 | 1015.2 |
| 20260505000644 | 66 | 151 | 0.0 | 0.0 | 0.00 | 0.00 | 0.00 | 50 | 1015.2 |
| 20260505000142 | 67 | 151 | 0.0 | 0.0 | 0.00 | 0.00 | 0.00 | 50 | 1015.2 |
| 20260504235638 | 67 | 145 | 0.0 | 0.0 | 0.00 | 0.00 | 0.00 | 49 | 1014.9 |
| 20260504235134 | 68 | 139 | 0.0 | 0.0 | 0.00 | 0.00 | 0.00 | 49 | 1014.9 |
| 20260504234632 | 68 | 139 | 0.0 | 0.0 | 0.00 | 0.00 | 0.00 | 50 | 1014.9 |
| 20260504234129 | 69 | 140 | 0.0 | 0.0 | 0.00 | 0.00 | 0.00 | 49 | 1014.9 |
| 20260504233625 | 69 | 300 | 0.0 | 0.0 | 0.00 | 0.00 | 0.00 | 46 | 1014.9 |
| 20260504233121 | 70 | 169 | 0.0 | 0.0 | 0.00 | 0.00 | 0.00 | 48 | 1014.9 |
| 20260504232619 | 70 | 171 | 0.0 | 0.0 | 0.00 | 0.00 | 0.00 | 47 | 1014.9 |
| 20260504232116 | 70 | 167 | 0.0 | 0.0 | 0.00 | 0.00 | 0.00 | 48 | 1014.9 |
| 20260504231612 | 70 | 154 | 0.0 | 0.0 | 0.00 | 0.00 | 0.00 | 47 | 1014.4 |
| 20260504231108 | 71 | 136 | 0.0 | 0.0 | 0.00 | 0.00 | 0.00 | 46 | 1014.9 |
| 20260504230604 | 70 | 136 | 0.0 | 0.0 | 0.00 | 0.00 | 0.00 | 48 | 1014.4 |
| 20260504230058 | 70 | 136 | 0.0 | 0.0 | 0.00 | 0.00 | 0.00 | 48 | 1014.4 |
| 20260504225555 | 70 | 117 | 0.0 | 0.0 | 0.00 | 0.00 | 0.00 | 47 | 1014.4 |
| 20260504225052 | 70 | 117 | 0.0 | 0.0 | 0.00 | 0.00 | 0.00 | 47 | 1014.9 |
| 20260504224548 | 70 | 117 | 0.0 | 0.0 | 0.00 | 0.00 | 0.00 | 47 | 1014.4 |
| 20260504224046 | 70 | 142 | 0.0 | 0.0 | 0.00 | 0.00 | 0.00 | 48 | 1014.9 |
| 20260504223543 | 70 | 136 | 0.0 | 0.0 | 0.00 | 0.00 | 0.00 | 48 | 1014.9 |
| 20260504223038 | 70 | 136 | 0.0 | 0.0 | 0.00 | 0.00 | 0.00 | 47 | 1014.9 |
| 20260504222535 | 69 | 136 | 0.0 | 0.0 | 0.00 | 0.00 | 0.00 | 48 | 1014.9 |
| 20260504222032 | 69 | 208 | 0.0 | 0.0 | 0.00 | 0.00 | 0.00 | 48 | 1014.9 |
| 20260504221530 | 68 | 120 | 0.0 | 0.0 | 0.00 | 0.00 | 0.00 | 48 | 1014.9 |
| 20260504221027 | 68 | 178 | 0.0 | 0.0 | 0.00 | 0.00 | 0.00 | 45 | 1014.9 |
| 20260504220523 | 67 | 107 | 0.0 | 0.0 | 0.00 | 0.00 | 0.00 | 45 | 1014.9 |
| 20260504220021 | 67 | 105 | 0.0 | 0.0 | 0.00 | 0.00 | 0.00 | 46 | 1014.9 |
| 20260504215517 | 67 | 119 | 0.0 | 1.7 | 0.00 | 0.00 | 0.00 | 44 | 1014.9 |
| 20260504215014 | 67 | 119 | 0.0 | 0.9 | 0.00 | 0.00 | 0.00 | 45 | 1014.9 |
| 20260504214510 | 68 | 155 | 0.0 | 0.0 | 0.00 | 0.00 | 0.00 | 45 | 1014.9 |
| 20260504214006 | 68 | 155 | 0.0 | 3.5 | 0.00 | 0.00 | 0.00 | 45 | 1014.9 |
| 20260504213502 | 68 | 166 | 0.9 | 3.5 | 0.00 | 0.00 | 0.00 | 46 | 1014.9 |
| 20260504213000 | 68 | 167 | 0.9 | 3.5 | 0.00 | 0.00 | 0.00 | 46 | 1014.9 |
| 20260504212456 | 69 | 123 | 0.0 | 3.5 | 0.00 | 0.00 | 0.00 | 47 | 1014.9 |
| 20260504211953 | 69 | 178 | 0.0 | 1.7 | 0.00 | 0.00 | 0.00 | 47 | 1014.9 |
| 20260504211449 | 69 | 180 | 0.0 | 1.7 | 0.00 | 0.00 | 0.00 | 47 | 1014.9 |
| 20260504210947 | 69 | 183 | 0.0 | 1.7 | 0.00 | 0.00 | 0.00 | 46 | 1014.9 |
| 20260504210444 | 70 | 190 | 0.0 | 1.7 | 0.00 | 0.00 | 0.00 | 47 | 1014.9 |
| 20260504205941 | 70 | 191 | 0.0 | 1.7 | 0.00 | 0.00 | 0.00 | 50 | 1014.9 |
| 20260504205438 | 70 | 191 | 0.0 | 1.7 | 0.00 | 0.00 | 0.00 | 50 | 1014.9 |
| 20260504204937 | 70 | 213 | 0.0 | 1.7 | 0.00 | 0.00 | 0.00 | 46 | 1014.9 |
| 20260504204434 | 70 | 222 | 0.0 | 1.7 | 0.00 | 0.00 | 0.00 | 46 | 1014.9 |
| 20260504203933 | 70 | 236 | 0.0 | 0.9 | 0.00 | 0.00 | 0.00 | 41 | 1014.9 |
| 20260504203431 | 70 | 236 | 0.0 | 0.9 | 0.00 | 0.00 | 0.00 | 43 | 1014.9 |
| 20260504202927 | 70 | 236 | 0.0 | 0.9 | 0.00 | 0.00 | 0.00 | 45 | 1014.9 |
| 20260504202423 | 71 | 236 | 0.0 | 0.9 | 0.00 | 0.00 | 0.00 | 41 | 1014.9 |
| 20260504201920 | 71 | 155 | 0.0 | 0.0 | 0.00 | 0.00 | 0.00 | 40 | 1015.2 |
| 20260504201418 | 71 | 155 | 0.0 | 0.0 | 0.00 | 0.00 | 0.00 | 43 | 1015.2 |
| 20260504200915 | 71 | 155 | 0.0 | 1.7 | 0.00 | 0.00 | 0.00 | 42 | 1015.2 |
| 20260504200411 | 71 | 155 | 0.0 | 1.7 | 0.00 | 0.00 | 0.00 | 41 | 1015.2 |
| 20260504195908 | 71 | 153 | 0.0 | 1.7 | 0.00 | 0.00 | 0.00 | 41 | 1015.2 |
| 20260504195403 | 71 | 323 | 0.0 | 3.5 | 0.00 | 0.00 | 0.00 | 39 | 1015.2 |
| 20260504194901 | 71 | 327 | 0.9 | 3.5 | 0.00 | 0.00 | 0.00 | 40 | 1015.2 |
| 20260504194356 | 71 | 331 | 0.9 | 3.5 | 0.00 | 0.00 | 0.00 | 36 | 1015.6 |
| 20260504193853 | 71 | 102 | 0.9 | 3.5 | 0.00 | 0.00 | 0.00 | 37 | 1015.6 |
| 20260504193350 | 71 | 176 | 0.9 | 3.5 | 0.00 | 0.00 | 0.00 | 38 | 1015.6 |
| 20260504192849 | 71 | 322 | 0.9 | 3.5 | 0.00 | 0.00 | 0.00 | 35 | 1015.6 |
| 20260504192346 | 71 | 308 | 0.9 | 3.5 | 0.00 | 0.00 | 0.00 | 39 | 1015.6 |
| 20260504191845 | 71 | 137 | 0.9 | 3.5 | 0.00 | 0.00 | 0.00 | 35 | 1015.6 |
| 20260504191342 | 71 | 112 | 0.9 | 3.5 | 0.00 | 0.00 | 0.00 | 40 | 1015.9 |
| 20260504190837 | 71 | 123 | 0.9 | 3.5 | 0.00 | 0.00 | 0.00 | 40 | 1015.9 |
| 20260504190333 | 71 | 128 | 0.9 | 3.5 | 0.00 | 0.00 | 0.00 | 43 | 1015.9 |
| 20260504185830 | 71 | 117 | 0.9 | 3.5 | 0.00 | 0.00 | 0.00 | 42 | 1015.9 |
| 20260504185327 | 71 | 196 | 0.9 | 3.5 | 0.00 | 0.00 | 0.00 | 40 | 1015.9 |
| 20260504184823 | 71 | 281 | 0.9 | 3.5 | 0.00 | 0.00 | 0.00 | 42 | 1015.9 |
| 20260504184319 | 70 | 115 | 0.9 | 4.3 | 0.00 | 0.00 | 0.00 | 40 | 1016.3 |
| 20260504183815 | 70 | 114 | 0.9 | 4.3 | 0.00 | 0.00 | 0.00 | 43 | 1015.9 |
| 20260504183312 | 70 | 290 | 0.9 | 4.3 | 0.00 | 0.00 | 0.00 | 42 | 1016.3 |
| 20260504182810 | 70 | 327 | 0.9 | 4.3 | 0.00 | 0.00 | 0.00 | 43 | 1016.3 |
| 20260504182307 | 69 | 114 | 0.9 | 4.3 | 0.00 | 0.00 | 0.00 | 42 | 1016.3 |
| 20260504181804 | 70 | 311 | 0.9 | 4.3 | 0.00 | 0.00 | 0.00 | 40 | 1016.3 |
| 20260504181301 | 70 | 286 | 0.9 | 5.2 | 0.00 | 0.00 | 0.00 | 42 | 1016.3 |
| 20260504180801 | 70 | 289 | 0.9 | 5.2 | 0.00 | 0.00 | 0.00 | 43 | 1016.7 |
| 20260504180259 | 69 | 313 | 0.9 | 4.3 | 0.00 | 0.00 | 0.00 | 44 | 1016.3 |
| 20260504175756 | 69 | 300 | 0.9 | 4.3 | 0.00 | 0.00 | 0.00 | 41 | 1016.7 |
| 20260504175253 | 69 | 308 | 0.9 | 5.2 | 0.00 | 0.00 | 0.00 | 41 | 1016.7 |
| 20260504174750 | 69 | 306 | 0.9 | 5.2 | 0.00 | 0.00 | 0.00 | 40 | 1016.7 |
| 20260504174249 | 69 | 279 | 0.9 | 5.2 | 0.00 | 0.00 | 0.00 | 41 | 1016.7 |
| 20260504173745 | 69 | 280 | 0.9 | 5.2 | 0.00 | 0.00 | 0.00 | 40 | 1016.7 |
| 20260504173242 | 69 | 130 | 0.9 | 3.5 | 0.00 | 0.00 | 0.00 | 42 | 1016.7 |
| 20260504172739 | 68 | 290 | 0.9 | 2.6 | 0.00 | 0.00 | 0.00 | 41 | 1016.7 |
| 20260504172235 | 68 | 125 | 0.9 | 7.8 | 0.00 | 0.00 | 0.00 | 42 | 1017.0 |
| 20260504171731 | 68 | 284 | 1.7 | 7.8 | 0.00 | 0.00 | 0.00 | 41 | 1017.0 |
| 20260504171228 | 68 | 89 | 0.9 | 3.5 | 0.00 | 0.00 | 0.00 | 43 | 1017.0 |
| 20260504170725 | 68 | 313 | 0.9 | 3.5 | 0.00 | 0.00 | 0.00 | 45 | 1017.0 |
| 20260504170223 | 67 | 287 | 0.9 | 4.3 | 0.00 | 0.00 | 0.00 | 44 | 1017.0 |
| 20260504160141 | 65 | 267 | 0.9 | 3.5 | 0.00 | 0.00 | 0.00 | 45 | 1018.1 |
| 20260504151109 | 62 | 309 | 1.7 | 8.7 | 0.00 | 0.00 | 0.00 | 49 | 1018.8 |
| 20260504150607 | 62 | 263 | 0.9 | 6.1 | 0.00 | 0.00 | 0.00 | 48 | 1018.8 |
| 20260504150104 | 61 | 130 | 0.9 | 4.3 | 0.00 | 0.00 | 0.00 | 48 | 1018.8 |
| 20260504141032 | 55 | 280 | 0.0 | 3.5 | 0.00 | 0.00 | 0.00 | 61 | 1018.8 |
| 20260504140528 | 55 | 246 | 0.0 | 1.7 | 0.00 | 0.00 | 0.00 | 63 | 1018.8 |
| 20260504130453 | 48 | 219 | 0.0 | 0.0 | 0.00 | 0.00 | 0.00 | 75 | 1018.5 |
| 20260504110340 | 37 | 219 | 0.0 | 0.0 | 0.00 | 0.00 | 0.00 | 90 | 1017.8 |
| 20260504100257 | 38 | 274 | 0.0 | 0.0 | 0.00 | 0.00 | 0.00 | 90 | 1017.8 |
| 20260504081650 | 40 | 140 | 0.0 | 0.0 | 0.00 | 0.00 | 0.00 | 88 | 1017.8 |
| 20260504081146 | 40 | 140 | 0.0 | 0.0 | 0.00 | 0.00 | 0.00 | 88 | 1017.3 |
| 20260504080643 | 40 | 140 | 0.0 | 0.0 | 0.00 | 0.00 | 0.00 | 86 | 1017.3 |
| 20260504080139 | 40 | 140 | 0.0 | 0.0 | 0.00 | 0.00 | 0.00 | 86 | 1017.3 |
| 20260504070108 | 41 | 140 | 0.0 | 0.0 | 0.00 | 0.00 | 0.00 | 85 | 1017.3 |
| 20260504050456 | 43 | 149 | 0.0 | 0.9 | 0.00 | 0.00 | 0.00 | 82 | 1017.8 |
| 20260504045953 | 44 | 149 | 0.0 | 0.0 | 0.00 | 0.00 | 0.00 | 81 | 1017.8 |
| 20260504045449 | 44 | 149 | 0.0 | 0.0 | 0.00 | 0.00 | 0.00 | 82 | 1017.8 |
| 20260504044945 | 44 | 149 | 0.0 | 0.0 | 0.00 | 0.00 | 0.00 | 82 | 1017.8 |
| 20260504044443 | 44 | 149 | 0.0 | 0.9 | 0.00 | 0.00 | 0.00 | 81 | 1017.8 |
| 20260504043940 | 45 | 149 | 0.0 | 1.7 | 0.00 | 0.00 | 0.00 | 79 | 1017.3 |
| 20260504043437 | 45 | 149 | 0.0 | 1.7 | 0.00 | 0.00 | 0.00 | 80 | 1017.3 |
| 20260504042934 | 45 | 149 | 0.0 | 0.0 | 0.00 | 0.00 | 0.00 | 80 | 1017.3 |
| 20260504042431 | 45 | 149 | 0.0 | 0.9 | 0.00 | 0.00 | 0.00 | 73 | 1017.3 |
| 20260504041927 | 45 | 149 | 0.0 | 0.9 | 0.00 | 0.00 | 0.00 | 74 | 1017.3 |